Terug naar catalogus

KUIPER-00111

ActiefCommunicatieLEO
NORAD 65149·PAYLOAD·🇺🇸 United States

Gelanceerd Aug 11, 2025 vanaf Cape Canaveral Space Force Station

Loading…

Volgende Passages (komende 24 uur)

TLE

VersSource: CelesTrak SupGP

Epoch: Sep 14, 2026, 20:03 UTC

1 65149C 25171T   26257.83609954  .00005289  00000+0  69254-3 0  2576
2 65149  51.8970  56.5893 0000647 120.3789   6.6331 14.79917441    17

Volg KUIPER-00111 in realtime met AllMySat

Download on the App Store